Regional Weather Roundup
Issued by NWS Kansas City/Pleasant Hill, MO

Home | Current Version | Previous Version | Graphics & Text | Print | Product List | Glossary Off
Versions: 1 2 3 4 5 6 7 8 9 10 11 12 13 14 15 16 17 18 19 20 21 22 23 24 25 26 27

000
ASUS43 KEAX 190810
RWREAX

WEATHER ROUNDUP FOR EASTERN KANSAS AND NORTHWEST MISSOURI
NATIONAL WEATHER SERVICE KANSAS CITY/PLEASANT HILL MO
200 AM CST MON FEB 19 2018

KSZ040-057-103>105-MOZ028-029-037-043-190900-
...KANSAS CITY METROPOLITAN AREA...

CITY           SKY/WX    TMP DP  RH WIND       PRES   REMARKS
K.C. INTL      DRIZZLE   54  52  93 S15G23    29.64F FOG
K.C. DOWNTOWN  CLOUDY    57  52  83 S12       29.66F
LEES SUMMIT    CLOUDY    55  54  96 S24G33    29.67F
OLATHE - IXD   CLOUDY    55  54  96 S14       29.67F
OLATHE - OJC   CLOUDY    54  54 100 S22G29    29.66F
LAWRENCE       CLOUDY    56  54  93 S18G29    29.63F

$$

MOZ001>008-011>017-020>025-030>033-038>040-044>046-053-054-190900-
...NORTHERN AND CENTRAL MISSOURI...

CITY           SKY/WX    TMP DP  RH WIND       PRES   REMARKS
ST. JOSEPH     CLOUDY    53  52  96 S14       29.61F
MOSBY          CLOUDY    54  52  94 S9        29.67F FOG
WARRENSBURG    CLOUDY    55  54  94 S14G21    29.70F
WHITEMAN AFB   HVY RAIN  53  51  93 S10       29.68F
CLINTON        CLOUDY    55  54  94 S7        29.74F
SEDALIA        CLOUDY    56  53  90 S16       29.74F
WARSAW         NOT AVBL
CHILLICOTHE      N/A     52  44  74 SE8       29.71F
KIRKSVILLE     CLOUDY    48  46  93 S10       29.76S

$$

MOZ041-047>049-056>058-063>065-088>090-097-190900-
...EASTERN AND SOUTHERN MISSOURI...

CITY           SKY/WX    TMP DP  RH WIND       PRES   REMARKS
ST. LOUIS INTL CLOUDY    52  47  83 S12       29.87F
SPIRIT OF STL  CLOUDY    55  50  83 CALM      29.86F
COLUMBIA       CLOUDY    53  50  89 S14       29.78F
JEFFERSON CITY CLOUDY    55  50  83 S12G24    29.80F
ROLLA          CLOUDY    53  51  93 S15       29.85F
OSAGE BEACH    CLOUDY    54  50  86 SE7       29.82F
SPRINGFIELD    CLOUDY    52  50  93 S14       29.83S
JOPLIN         CLOUDY    58  58 100 S25G33    29.77F
WEST PLAINS    FOG       50  50 100 S10       29.94S VSB 1/2

$$

IAZ060-094-KSZ022-034>040-054-083-096-NEZ052-066-093-190900-
...KANSAS...SOUTHEAST NEBRASKA AND IOWA...

CITY           SKY/WX    TMP DP  RH WIND       PRES   REMARKS
TOPEKA         CLOUDY    55  54  96 S18G28    29.59F
MANHATTAN      CLOUDY    59  55  87 S22G32    29.52F
EMPORIA        CLOUDY    55  54  96 S28G36    29.59F FOG
CHANUTE        CLOUDY    57  56  96 S17G23    29.71S
WICHITA        CLOUDY    63  59  87 S23G37    29.59S
OMAHA          LGT RAIN  32  31  96 N12       29.64S FOG     WCI  23
LINCOLN        LGT SNOW  31  29  92 N13       29.64S FOG     WCI  21
FALLS CITY     CLOUDY    51  49  92 SE7       29.59F FOG
LAMONI         CLOUDY    48  35  60 E5        29.67F
DES MOINES     CLOUDY    44  33  65 SE10      29.68F

$$





USA.gov is the U.S. government's official web portal to all federal, state and local government web resources and services.